GW4540 Weather Reports


time (UTC)temp
C
wind
direction
speed
KPH
gust
KPH
rain 1hr
cm
rain 24hr
cm
rain mn
cm
humidity
%
barometer
mb
20260507213121 35 192 8.0 12.9 0.00 0.00 0.00 6 1009.5
20260507211617 35 148 0.0 1.6 0.00 0.00 0.00 6 1010.0
20260507210112 36 139 1.6 1.6 0.00 0.00 0.00 6 1010.3
20260507204607 36 126 4.8 4.8 0.00 0.00 0.00 5 1010.4
20260507203105 35 270 1.6 3.2 0.00 0.00 0.00 6 1010.6
20260507201604 35 130 8.0 11.3 0.00 0.00 0.00 6 1010.8
20260507200059 34 86 4.8 8.0 0.00 0.00 0.00 7 1010.9
20260507194555 33 102 6.4 8.0 0.00 0.00 0.00 7 1011.2
20260507193051 33 185 9.7 12.9 0.00 0.00 0.00 7 1011.6
20260507191546 33 277 1.6 1.6 0.00 0.00 0.00 8 1012.0
20260507190045 32 36 1.6 3.2 0.00 0.00 0.00 8 1012.3
20260507184543 33 111 4.8 4.8 0.00 0.00 0.00 8 1012.4
20260507183039 32 142 3.2 4.8 0.00 0.00 0.00 8 1012.8
20260507181535 32 317 4.8 4.8 0.00 0.00 0.00 10 1012.9
20260507180030 32 101 1.6 1.6 0.00 0.00 0.00 10 1013.0
20260507174527 30 158 1.6 1.6 0.00 0.00 0.00 11 1013.2
20260507173025 30 199 8.0 9.7 0.00 0.00 0.00 12 1013.3
20260507171524 30 144 0.0 1.6 0.00 0.00 0.00 12 1013.3
20260507170021 29 127 1.6 3.2 0.00 0.00 0.00 14 1013.2
20260507164516 28 121 4.8 4.8 0.00 0.00 0.00 14 1013.5
20260507163014 28 152 3.2 3.2 0.00 0.00 0.00 16 1013.8
20260507161514 27 164 4.8 4.8 0.00 0.00 0.00 17 1013.8
20260507160009 27 121 1.6 1.6 0.00 0.00 0.00 18 1014.0
20260507154504 26 118 0.0 0.0 0.00 0.00 0.00 18 1013.8
20260507153000 25 103 0.0 1.6 0.00 0.00 0.00 20 1013.6
20260507151455 24 66 0.0 1.6 0.00 0.00 0.00 22 1013.7
20260507145951 23 353 3.2 4.8 0.00 0.00 0.00 23 1013.9
20260507144446 21 106 0.0 0.0 0.00 0.00 0.00 26 1013.8
20260507142943 21 181 1.6 3.2 0.00 0.00 0.00 26 1013.7
20260507141438 20 116 0.0 1.6 0.00 0.00 0.00 29 1013.9
20260507135936 19 114 1.6 1.6 0.00 0.00 0.00 29 1013.9
20260507134432 18 125 0.0 0.0 0.00 0.00 0.00 33 1013.5
20260507132929 18 110 0.0 0.0 0.00 0.00 0.00 32 1013.3
20260507131424 18 111 0.0 0.0 0.00 0.00 0.00 31 1013.2
20260507125923 17 125 0.0 0.0 0.00 0.00 0.00 35 1013.0
20260507124419 17 143 0.0 0.0 0.00 0.00 0.00 34 1013.1
20260507122917 18 140 0.0 0.0 0.00 0.00 0.00 33 1013.1
20260507121416 18 118 0.0 0.0 0.00 0.00 0.00 30 1013.1
20260507115911 20 4 6.4 8.0 0.00 0.00 0.00 27 1013.1
20260507114411 18 122 1.6 1.6 0.00 0.00 0.00 29 1013.2
20260507112908 19 36 1.6 3.2 0.00 0.00 0.00 28 1013.1
20260507111405 20 19 4.8 4.8 0.00 0.00 0.00 28 1013.3
20260507105901 19 87 4.8 4.8 0.00 0.00 0.00 28 1013.5
20260507104356 19 57 1.6 3.2 0.00 0.00 0.00 28 1013.5
20260507102851 20 1 6.4 8.0 0.00 0.00 0.00 26 1013.6
20260507101350 20 67 1.6 3.2 0.00 0.00 0.00 25 1013.5
20260507095849 20 29 4.8 4.8 0.00 0.00 0.00 25 1013.7
20260507094344 20 72 1.6 1.6 0.00 0.00 0.00 26 1013.7
20260507092844 20 79 1.6 1.6 0.00 0.00 0.00 27 1013.9
20260507091344 20 123 0.0 0.0 0.00 0.00 0.00 27 1013.7
20260507085839 20 142 0.0 0.0 0.00 0.00 0.00 25 1013.7
20260507084335 20 83 1.6 1.6 0.00 0.00 0.00 26 1013.8
20260507082832 20 121 0.0 0.0 0.00 0.00 0.00 26 1013.9
20260507081326 21 125 1.6 1.6 0.00 0.00 0.00 24 1013.9
20260507075821 21 133 0.0 0.0 0.00 0.00 0.00 24 1014.1
20260507074317 21 142 0.0 0.0 0.00 0.00 0.00 23 1014.0
20260507072814 22 137 1.6 1.6 0.00 0.00 0.00 22 1013.7
20260507071311 22 186 0.0 1.6 0.00 0.00 0.00 22 1014.0
20260507065808 22 213 0.0 1.6 0.00 0.00 0.00 21 1013.8
20260507064306 22 140 1.6 3.2 0.00 0.00 0.00 21 1013.7
20260507062803 22 201 4.8 4.8 0.00 0.00 0.00 21 1013.8
20260507061301 22 175 3.2 3.2 0.00 0.00 0.00 22 1014.1
20260507055758 22 203 1.6 3.2 0.00 0.00 0.00 22 1014.1
20260507054258 22 212 1.6 1.6 0.00 0.00 0.00 22 1014.3
20260507052758 23 231 1.6 1.6 0.00 0.00 0.00 21 1014.0
20260507051255 23 220 1.6 1.6 0.00 0.00 0.00 21 1014.1
20260507045751 23 138 0.0 0.0 0.00 0.00 0.00 21 1013.8
20260507044247 24 143 1.6 1.6 0.00 0.00 0.00 20 1013.8
20260507042742 24 146 1.6 1.6 0.00 0.00 0.00 20 1013.6
20260507041237 25 166 1.6 1.6 0.00 0.00 0.00 20 1013.4
20260507035732 25 146 1.6 1.6 0.00 0.00 0.00 20 1013.2
20260507034228 25 136 0.0 0.0 0.00 0.00 0.00 20 1012.8
20260507032727 25 169 1.6 1.6 0.00 0.00 0.00 19 1012.9
20260507031222 26 201 3.2 3.2 0.00 0.00 0.00 18 1012.5
20260507025720 26 212 1.6 3.2 0.00 0.00 0.00 18 1012.5
20260507024218 26 220 3.2 3.2 0.00 0.00 0.00 18 1012.7
20260507022714 27 182 4.8 4.8 0.00 0.00 0.00 17 1012.7
20260507021213 27 206 3.2 3.2 0.00 0.00 0.00 17 1012.4
20260507015712 27 185 3.2 3.2 0.00 0.00 0.00 17 1012.7
20260507014207 28 193 3.2 8.0 0.00 0.00 0.00 16 1012.4
20260507012705 28 197 8.0 9.7 0.00 0.00 0.00 16 1012.3
20260507011205 28 148 3.2 3.2 0.00 0.00 0.00 16 1012.3
20260507005704 28 146 1.6 3.2 0.00 0.00 0.00 16 1012.3
20260507004200 28 159 4.8 8.0 0.00 0.00 0.00 16 1012.4
20260507002659 29 264 8.0 11.3 0.00 0.00 0.00 16 1012.5
20260507001155 28 250 4.8 4.8 0.00 0.00 0.00 16 1012.7
20260506235655 29 144 3.2 3.2 0.00 0.00 0.00 16 1012.5
20260506234151 30 186 8.0 9.7 0.00 0.00 0.00 15 1012.3
20260506232647 30 159 4.8 4.8 0.00 0.00 0.00 15 1012.5
20260506231144 29 186 1.6 1.6 0.00 0.00 0.00 15 1012.4
20260506225640 29 175 6.4 9.7 0.00 0.00 0.00 16 1012.8
20260506224135 29 21 3.2 4.8 0.00 0.00 0.00 16 1013.0
20260506222631 29 235 6.4 9.7 0.00 0.00 0.00 15 1013.1
20260506221129 30 176 9.7 12.9 0.00 0.00 0.00 15 1013.5
20260506215629 28 37 1.6 1.6 0.00 0.00 0.00 16 1013.6
20260506214125 28 274 4.8 8.0 0.00 0.00 0.00 17 1014.0